Wind_Speed
10 10 11 12 13 14 14 15 17 19 20 20 22 22 23 24 25 27 27 28 28 29 30 31 31 31 31 31 30 30 30 29 28 27 27 27 26 26 26 27 29 28 28 29
9 10 11 12 12 13 13 14 16 18 19 20 20 21 21 22 23 25 26 27 27 28 29 30 31 32 33 33 32 31 31 31 30 29 29 29 29 30 30 29 30 30 30 30
9 10 10 11 11 11 12 13 15 16 17 17 19 19 20 21 21 23 24 25 26 27 28 30 31 32 34 34 33 32 32 31 31 31 32 32 31 30 30 30 31 31 31 32
9 10 9 9 10 10 11 13 14 14 14 15 16 17 19 19 20 21 22 24 25 26 27 28 29 31 32 33 33 33 33 33 32 32 33 32 31 30 30 30 30 32 33 34
9 9 9 9 10 10 10 11 12 13 14 15 16 16 18 18 19 19 21 22 24 25 25 26 28 29 30 31 32 33 33 33 33 33 32 32 32 31 31 31 31 33 33 34
9 9 9 9 9 9 9 9 11 12 12 14 15 16 17 18 17 18 19 21 23 24 24 25 26 28 29 30 31 31 31 32 32 32 31 32 32 32 32 32 32 33 33 33
9 9 8 8 8 8 8 7 8 9 10 12 15 16 17 17 17 18 20 21 22 23 24 25 26 28 29 29 29 30 30 31 31 31 31 31 31 32 31 31 32 34 33 34
8 8 9 8 7 8 7 7 7 9 10 12 14 14 15 16 17 18 20 21 22 23 24 25 25 26 27 29 29 29 30 31 30 30 30 30 31 31 30 30 30 32 32 32
7 8 8 7 7 7 7 7 8 9 10 11 13 13 13 14 16 17 18 19 21 22 24 24 24 25 26 27 28 29 30 30 30 30 30 30 30 31 31 31 30 30 30 30
7 6 7 7 7 7 7 8 8 7 10 11 12 15 13 12 14 15 16 18 20 21 22 22 23 24 25 25 26 28 29 30 30 30 30 30 31 31 30 29 28 29 29 29
6 6 6 6 6 8 8 9 9 9 11 10 12 14 13 14 15 16 17 18 19 20 20 21 22 23 24 25 26 27 29 29 30 31 31 32 31 30 29 29 29 30 29 29
6 6 6 7 7 8 8 9 9 10 12 12 12 14 14 15 16 17 18 18 19 19 19 20 21 23 24 25 26 27 28 28 28 29 29 29 29 29 29 29 29 29 28 29
6 5 6 8 9 8 8 8 9 10 12 13 13 15 14 15 16 17 18 17 17 18 19 20 21 22 23 25 25 25 26 26 26 26 27 27 27 27 27 27 28 28 28 29
6 5 5 7 8 8 8 8 9 10 12 13 13 14 14 15 16 17 17 18 18 19 20 20 21 22 23 23 24 24 24 24 24 24 24 24 24 25 25 26 27 27 27 27
5 5 5 6 7 7 8 9 10 11 12 12 13 14 15 16 17 18 18 19 18 19 20 21 22 22 21 21 22 22 21 22 22 22 22 22 23 23 24 24 25 25 25 25
6 5 6 6 7 8 9 10 11 11 12 13 14 15 16 17 18 18 19 19 19 20 21 21 21 21 21 20 21 21 19 19 20 20 20 20 21 21 21 21 21 22 23 24
6 6 6 6 7 8 9 10 11 12 12 13 14 16 16 17 18 18 19 19 19 19 20 20 21 21 19 19 19 19 19 18 17 17 18 18 19 19 19 19 20 21 22 22
6 5 5 5 7 8 10 10 11 12 13 14 15 16 17 17 17 17 18 18 18 18 18 18 18 18 17 18 19 18 17 17 16 16 16 15 15 16 17 18 18 18 18 19
6 5 5 5 7 8 9 10 11 12 13 14 15 16 17 17 17 17 17 17 17 17 17 16 16 16 16 16 16 16 16 15 14 14 14 14 15 15 15 15 15 16 17 18
6 5 4 5 6 8 9 10 11 13 13 14 15 16 16 16 17 17 16 16 15 15 14 13 13 13 13 14 14 14 13 12 12 13 13 13 13 14 14 14 14 15 16 16
6 5 4 5 7 8 9 11 12 13 14 15 15 16 16 16 16 16 15 14 13 12 12 11 11 10 10 11 11 12 12 11 12 12 12 13 13 13 13 13 14 14 15 15
6 5 5 5 6 8 9 10 12 13 14 15 15 16 16 16 15 15 14 12 12 11 10 10 9 9 9 10 9 9 9 10 10 10 11 11 11 12 12 12 12 13 13 14
7 5 5 5 6 7 9 11 12 14 14 15 15 15 16 16 15 14 12 11 10 9 9 8 8 8 8 8 8 8 7 8 8 8 9 9 10 10 10 11 11 12 12 12
7 5 5 5 6 7 9 11 12 14 14 15 15 16 16 15 15 13 11 10 8 7 7 7 7 7 7 8 8 7 7 7 7 6 7 7 8 8 9 10 10 10 10 10
7 5 5 5 6 7 9 10 12 14 14 15 15 15 15 15 14 13 11 9 8 7 6 6 5 5 6 6 6 6 6 5 5 6 6 7 7 7 8 8 8 8 8 8
7 5 4 4 5 7 8 10 12 13 14 15 15 15 15 14 14 12 11 9 7 6 6 5 4 4 4 4 4 4 3 3 4 5 5 6 6 6 6 6 6 6 6 7
Wind_Direction
266 268 267 267 264 260 261 261 262 261 260 257 255 253 251 248 247 245 244 244 244 244 244 244 246 248 250 254 258 262 265 268 269 268 268 267 267 266 264 259 260 259 257 254
268 271 271 272 269 268 268 267 265 266 263 260 258 256 254 251 249 247 246 244 244 244 244 245 246 248 251 254 258 261 263 265 267 269 271 269 269 266 265 264 261 259 257 254
260 268 274 275 274 273 272 267 263 264 266 262 259 257 257 255 252 248 246 246 247 247 247 248 248 250 253 255 258 260 263 266 267 268 271 271 270 268 264 264 259 257 257 256
260 268 274 277 275 275 274 268 264 265 268 266 261 261 261 257 254 250 248 248 249 247 247 249 249 252 254 255 257 259 262 264 266 269 270 270 268 269 267 262 259 256 255 256
264 270 274 275 276 276 271 272 267 267 265 262 263 258 260 257 254 251 249 248 250 250 250 250 251 253 255 256 257 259 261 263 264 268 269 268 266 268 267 262 259 257 256 256
263 271 272 272 277 280 282 278 274 273 271 264 263 260 263 259 255 252 250 251 252 254 254 252 252 253 256 257 257 260 262 263 264 266 268 267 266 266 265 261 260 259 257 256
267 274 276 278 283 285 281 284 285 280 274 269 267 260 260 262 258 253 253 255 255 256 258 257 256 256 258 259 259 260 262 263 264 266 265 264 266 264 265 264 260 260 260 259
258 272 275 276 275 279 280 272 260 264 264 268 272 265 264 262 260 258 258 259 259 260 261 260 258 258 260 260 262 262 263 263 265 266 266 266 267 266 266 265 265 261 259 260
246 260 267 268 273 277 284 280 265 266 272 273 275 277 272 267 267 267 266 267 266 264 262 260 260 260 262 264 263 263 264 265 265 265 265 265 266 266 265 264 264 263 262 262
238 256 265 271 280 282 278 278 280 279 277 271 278 281 276 276 276 276 276 274 272 269 268 263 262 260 261 263 264 264 263 263 263 264 265 264 265 265 263 262 262 261 261 261
241 257 268 276 283 288 289 288 284 280 277 277 278 282 283 281 283 282 281 278 275 272 267 267 266 264 264 265 266 266 266 265 263 263 263 264 262 260 260 260 260 259 260 259
239 251 266 277 285 290 290 286 283 284 287 287 283 284 285 286 285 282 281 279 276 271 269 268 268 268 267 267 268 268 265 264 264 262 263 264 261 258 257 258 257 257 256 257
237 247 273 291 299 298 294 288 287 289 292 291 288 288 287 286 285 285 284 282 278 274 275 274 273 272 270 268 268 267 265 263 263 263 265 264 262 259 258 257 257 256 258 260
236 246 258 270 287 298 299 297 297 296 296 295 292 291 292 291 289 288 287 287 283 278 278 278 276 274 270 269 269 269 266 264 262 263 264 262 260 258 259 259 258 260 260 261
237 248 265 277 290 301 306 305 304 302 297 295 295 294 297 297 295 294 291 289 286 281 279 278 277 276 273 270 269 269 267 266 262 261 259 258 259 257 257 258 258 260 261 263
239 253 272 283 295 304 307 309 310 308 304 299 300 300 300 300 300 299 296 290 287 283 280 278 277 276 276 273 270 269 267 266 264 260 258 258 259 258 258 258 258 261 264 266
247 255 268 287 302 311 314 315 314 312 309 305 304 304 304 305 303 301 298 292 287 283 281 278 275 276 274 270 268 272 271 269 265 260 258 257 258 258 258 260 261 264 266 268
241 246 265 286 303 310 314 317 317 313 310 309 308 308 309 311 308 305 302 298 290 285 284 281 277 275 273 271 271 272 271 270 265 261 259 258 259 262 263 263 265 266 267 270
233 245 263 286 305 313 314 316 317 317 315 314 314 313 313 313 310 307 303 299 296 290 285 284 280 277 274 275 275 270 269 268 264 262 262 263 263 264 266 268 271 270 272 273
232 247 264 289 303 310 316 319 322 323 322 322 320 319 317 315 312 311 308 302 299 295 290 286 285 281 277 273 270 265 265 266 266 266 265 266 268 270 272 273 274 275 276 276
231 244 266 287 302 310 319 322 325 329 328 328 326 325 322 320 317 314 309 306 303 300 294 290 285 283 280 277 272 265 262 267 270 270 270 270 273 275 276 277 277 279 278 278
226 243 264 287 304 312 322 327 331 331 330 329 329 330 330 329 326 320 315 309 305 301 297 291 288 284 280 278 275 273 270 271 272 271 274 277 279 279 280 282 284 284 283 283
225 240 264 285 302 316 324 331 335 336 335 334 335 336 336 336 334 330 324 318 311 306 300 294 287 284 281 282 283 280 279 279 276 274 277 281 282 282 285 288 290 292 290 289
225 243 268 288 307 319 327 333 340 343 342 341 341 342 342 342 341 338 334 329 323 317 311 303 294 287 287 286 288 290 285 283 276 277 281 281 283 283 287 294 296 295 294 292
227 244 267 290 311 323 331 338 343 346 346 346 347 348 348 348 348 346 344 341 336 328 322 316 307 298 294 289 287 289 290 288 283 283 287 290 293 296 299 301 303 303 301 300
226 240 263 295 315 326 336 342 347 350 351 351 351 353 355 356 357 357 357 355 351 348 344 342 335 325 315 307 301 297 300 294 296 295 295 298 303 304 304 307 311 312 312 311
Height
5808 5809 5810 5810 5810 5810 5811 5811 5811 5810 5810 5811 5811 5812 5814 5815 5816 5818 5820 5822 5824 5826 5828 5829 5831 5832 5834 5835 5836 5836 5837 5837 5837 5837 5837 5837 5837 5836 5836 5836 5836 5836 5837 5838
5806 5806 5806 5806 5806 5806 5806 5807 5807 5806 5806 5806 5807 5808 5809 5810 5811 5813 5815 5816 5818 5820 5822 5823 5825 5826 5827 5828 5829 5830 5830 5830 5831 5831 5831 5830 5829 5829 5829 5829 5829 5829 5830 5831
5803 5803 5802 5802 5802 5803 5803 5803 5803 5802 5802 5802 5803 5804 5804 5805 5806 5808 5809 5810 5812 5814 5815 5817 5818 5819 5820 5821 5822 5823 5824 5824 5824 5824 5823 5822 5822 5821 5821 5822 5822 5822 5823 5824
5799 5800 5800 5800 5799 5799 5799 5798 5798 5798 5799 5799 5800 5801 5800 5800 5801 5802 5804 5805 5806 5807 5809 5810 5811 5813 5813 5814 5815 5816 5816 5816 5816 5816 5816 5815 5815 5815 5815 5815 5815 5815 5816 5817
5797 5797 5797 5797 5796 5796 5795 5795 5794 5794 5795 5796 5796 5797 5797 5796 5797 5798 5799 5800 5801 5802 5803 5804 5805 5806 5806 5807 5808 5808 5809 5809 5809 5809 5808 5808 5807 5807 5808 5807 5807 5807 5808 5808
5794 5794 5794 5794 5793 5793 5792 5792 5791 5791 5792 5793 5793 5794 5794 5792 5792 5793 5794 5794 5795 5796 5797 5797 5798 5799 5799 5800 5801 5801 5801 5801 5801 5801 5801 5800 5800 5800 5800 5800 5800 5800 5800 5801
5792 5792 5791 5791 5790 5790 5790 5791 5792 5791 5791 5791 5789 5789 5789 5787 5787 5788 5789 5789 5789 5790 5790 5791 5791 5792 5792 5792 5792 5793 5793 5793 5793 5793 5792 5792 5792 5792 5792 5792 5792 5792 5792 5793
5790 5791 5789 5788 5788 5788 5787 5788 5790 5790 5790 5788 5785 5784 5784 5783 5783 5783 5783 5783 5784 5784 5784 5784 5784 5784 5784 5784 5784 5785 5785 5785 5785 5785 5784 5784 5784 5784 5784 5784 5784 5784 5784 5785
5788 5789 5787 5786 5785 5786 5785 5785 5786 5786 5785 5784 5782 5781 5780 5779 5778 5778 5778 5778 5777 5777 5777 5777 5777 5777 5777 5777 5777 5777 5777 5777 5777 5777 5777 5776 5776 5776 5776 5776 5776 5776 5777 5777
5785 5786 5785 5784 5784 5783 5783 5783 5782 5782 5782 5781 5780 5778 5777 5775 5774 5774 5773 5772 5771 5771 5770 5770 5770 5769 5770 5770 5769 5769 5768 5768 5769 5769 5769 5769 5769 5768 5768 5768 5768 5768 5768 5769
5782 5784 5783 5782 5782 5782 5781 5780 5779 5779 5778 5778 5777 5777 5773 5771 5770 5769 5768 5767 5766 5765 5764 5764 5763 5763 5762 5762 5761 5761 5760 5760 5760 5760 5760 5760 5760 5760 5760 5760 5760 5761 5761 5762
5780 5781 5781 5780 5779 5778 5778 5777 5776 5776 5775 5774 5773 5774 5769 5767 5766 5764 5763 5761 5760 5759 5758 5757 5756 5755 5755 5754 5753 5752 5752 5752 5752 5752 5752 5752 5751 5751 5752 5752 5752 5753 5753 5754
5778 5779 5779 5779 5779 5777 5775 5774 5773 5773 5772 5770 5769 5770 5765 5763 5761 5759 5758 5756 5754 5753 5752 5750 5749 5748 5747 5747 5746 5745 5744 5744 5744 5744 5744 5744 5744 5743 5744 5744 5745 5745 5746 5746
5776 5776 5778 5778 5776 5774 5772 5771 5770 5770 5769 5767 5766 5764 5761 5759 5757 5755 5752 5750 5749 5747 5746 5744 5743 5742 5741 5739 5739 5738 5737 5737 5736 5736 5736 5736 5736 5736 5736 5737 5737 5738 5738 5738
5773 5774 5774 5774 5773 5772 5770 5769 5768 5766 5765 5763 5762 5759 5757 5754 5752 5749 5747 5745 5743 5742 5740 5738 5737 5735 5734 5732 5732 5731 5730 5729 5729 5729 5729 5728 5728 5729 5729 5729 5730 5730 5730 5731
5771 5772 5772 5772 5770 5769 5768 5767 5765 5763 5761 5759 5757 5755 5752 5749 5747 5744 5742 5739 5737 5736 5734 5732 5731 5729 5727 5726 5725 5725 5724 5723 5723 5723 5722 5722 5722 5722 5723 5723 5723 5723 5723 5723
5770 5770 5770 5770 5768 5767 5766 5764 5762 5760 5758 5756 5753 5752 5748 5745 5742 5739 5736 5734 5731 5730 5728 5726 5724 5723 5722 5720 5719 5719 5718 5718 5717 5717 5717 5717 5717 5717 5717 5717 5717 5717 5717 5717
5768 5768 5768 5768 5767 5766 5766 5761 5759 5757 5755 5752 5749 5747 5744 5740 5737 5734 5731 5728 5726 5724 5721 5719 5718 5717 5716 5715 5714 5713 5713 5713 5712 5712 5712 5712 5712 5712 5712 5712 5712 5711 5711 5711
5766 5766 5766 5766 5765 5764 5762 5759 5757 5754 5752 5749 5746 5743 5739 5736 5732 5729 5726 5723 5721 5718 5716 5714 5713 5712 5711 5710 5709 5709 5708 5708 5707 5707 5708 5708 5707 5707 5707 5707 5706 5706 5706 5705
5764 5764 5765 5764 5763 5762 5761 5757 5754 5753 5749 5746 5742 5739 5735 5732 5728 5725 5721 5718 5716 5714 5711 5710 5709 5707 5706 5706 5705 5705 5704 5704 5704 5703 5703 5703 5703 5703 5703 5702 5702 5702 5701 5701
5763 5763 5763 5762 5761 5759 5757 5754 5752 5751 5748 5742 5739 5735 5731 5728 5725 5721 5717 5714 5712 5710 5708 5706 5705 5704 5703 5702 5702 5701 5701 5700 5700 5700 5699 5699 5699 5699 5699 5698 5698 5697 5697 5696
5761 5761 5761 5760 5759 5759 5755 5752 5750 5748 5743 5739 5736 5732 5728 5724 5720 5717 5713 5710 5708 5706 5705 5703 5702 5701 5700 5699 5699 5698 5697 5697 5697 5696 5696 5696 5696 5695 5695 5695 5694 5694 5693 5692
5759 5760 5759 5759 5759 5756 5753 5750 5747 5744 5740 5737 5733 5729 5725 5721 5717 5713 5710 5708 5705 5704 5702 5701 5700 5699 5698 5697 5696 5696 5695 5695 5694 5694 5694 5693 5693 5693 5692 5692 5691 5690 5689 5688
5757 5757 5757 5756 5754 5753 5751 5748 5745 5742 5738 5734 5731 5727 5723 5719 5715 5711 5708 5705 5703 5701 5700 5698 5697 5696 5696 5695 5694 5694 5693 5693 5692 5692 5692 5691 5691 5691 5690 5689 5688 5687 5686 5685
5755 5755 5755 5754 5753 5751 5749 5746 5743 5740 5736 5732 5729 5725 5721 5717 5713 5709 5706 5704 5702 5700 5698 5697 5696 5695 5694 5693 5692 5692 5691 5691 5691 5690 5690 5690 5689 5689 5688 5687 5686 5685 5684 5682
5753 5754 5754 5753 5752 5750 5748 5745 5742 5738 5735 5731 5727 5723 5719 5716 5712 5708 5705 5703 5700 5698 5697 5695 5694 5693 5692 5691 5691 5690 5690 5690 5689 5689 5689 5688 5687 5686 5686 5685 5684 5682 5681 5680